• In Uzbekistan
  • List of Countries
  • For 7 days
  • Water Temperature
  • Satellite Maps
  • Weather Map
  • Weather Widgets
  • user-avatar
    Login

    Hourly Weather Blenheim

    Today, 13 December, Thursday

    Time Temperature Precipitation Wind Pressure Humidity
    00:00 +15°C° 0 mm 2 mps 759 mmHg 96%
    01:00 +15°C° 0 mm 2 mps 759 mmHg 96%
    02:00 +15°C° 0 mm 2 mps 759 mmHg 96%
    03:00 +15°C° 0 mm 2 mps 759 mmHg 96%
    04:00 +15°C° 0 mm 2 mps 759 mmHg 95%
    05:00 +16°C° 0 mm 2 mps 760 mmHg 95%
    06:00 +16°C° 0 mm 2 mps 760 mmHg 93%
    07:00 +17°C° 0 mm 2 mps 760 mmHg 89%
    08:00 +18°C° 0 mm 3 mps 760 mmHg 85%
    09:00 +19°C° 0 mm 3 mps 760 mmHg 81%
    10:00 +19°C° 0.1 mm 3 mps 760 mmHg 80%
    11:00 +20°C° 0.1 mm 4 mps 760 mmHg 79%
    12:00 +20°C° 0 mm 3 mps 761 mmHg 79%
    13:00 +20°C° 0.3 mm 3 mps 761 mmHg 79%
    14:00 +20°C° 0.3 mm 3 mps 761 mmHg 79%
    15:00 +20°C° 0.3 mm 3 mps 761 mmHg 80%
    16:00 +20°C° 0.2 mm 3 mps 761 mmHg 82%
    17:00 +19°C° 0.2 mm 4 mps 761 mmHg 85%
    18:00 +19°C° 0.2 mm 4 mps 761 mmHg 88%
    19:00 +18°C° 0 mm 3 mps 761 mmHg 91%
    20:00 +17°C° 0 mm 3 mps 761 mmHg 94%
    21:00 +16°C° 0 mm 3 mps 762 mmHg 97%
    22:00 +16°C° 0 mm 3 mps 762 mmHg 97%
    23:00 +16°C° 0 mm 3 mps 762 mmHg 97%

    Tomorrow, 14 December, Friday

    Time Temperature Precipitation Wind Pressure Humidity
    00:00 +16°C° 0 mm 3 mps 762 mmHg 97%
    01:00 +16°C° 0 mm 3 mps 762 mmHg 97%
    02:00 +16°C° 0 mm 2 mps 762 mmHg 97%
    03:00 +15°C° 0 mm 2 mps 762 mmHg 97%
    04:00 +16°C° 0 mm 2 mps 762 mmHg 97%
    05:00 +16°C° 0 mm 2 mps 762 mmHg 96%
    06:00 +16°C° 0 mm 2 mps 762 mmHg 95%
    07:00 +17°C° 0.1 mm 2 mps 762 mmHg 93%
    08:00 +18°C° 0.1 mm 2 mps 762 mmHg 90%
    09:00 +18°C° 0.1 mm 2 mps 762 mmHg 88%
    10:00 +19°C° 0.2 mm 2 mps 762 mmHg 82%
    11:00 +21°C° 0.2 mm 2 mps 762 mmHg 77%
    12:00 +23°C° 0.2 mm 2 mps 762 mmHg 71%
    13:00 +21°C° 0.4 mm 2 mps 762 mmHg 74%
    14:00 +21°C° 0.4 mm 2 mps 762 mmHg 76%
    15:00 +20°C° 0.4 mm 2 mps 762 mmHg 79%
    16:00 +20°C° 0.2 mm 2 mps 762 mmHg 81%
    17:00 +21°C° 0.2 mm 1 mps 762 mmHg 83%
    18:00 +20°C° 0.2 mm 1 mps 762 mmHg 86%
    19:00 +19°C° 0.1 mm 1 mps 762 mmHg 89%
    20:00 +16°C° 0.1 mm 0 mps 762 mmHg 92%
    21:00 +15°C° 0.1 mm 0 mps 763 mmHg 96%
    22:00 +15°C° 0 mm 0 mps 763 mmHg 95%
    23:00 +15°C° 0 mm 0 mps 763 mmHg 95%

    Day after tomorrow, 15 December, Saturday

    Time Temperature Precipitation Wind Pressure Humidity
    00:00 +16°C° 0 mm 1 mps 763 mmHg 95%
    01:00 +16°C° 0 mm 1 mps 763 mmHg 95%
    02:00 +15°C° 0 mm 1 mps 763 mmHg 94%
    03:00 +15°C° 0 mm 1 mps 763 mmHg 94%
    04:00 +16°C° 0 mm 1 mps 763 mmHg 92%
    05:00 +16°C° 0 mm 1 mps 764 mmHg 90%
    06:00 +18°C° 0 mm 1 mps 764 mmHg 88%
    07:00 +20°C° 0 mm 1 mps 764 mmHg 81%
    08:00 +21°C° 0 mm 1 mps 764 mmHg 74%
    09:00 +23°C° 0 mm 2 mps 765 mmHg 67%
    10:00 +23°C° 0.1 mm 2 mps 765 mmHg 68%
    11:00 +24°C° 0.1 mm 2 mps 765 mmHg 69%
    12:00 +24°C° 0.1 mm 3 mps 765 mmHg 70%
    13:00 +24°C° 0.3 mm 3 mps 765 mmHg 71%
    14:00 +22°C° 0.3 mm 3 mps 765 mmHg 72%
    15:00 +22°C° 0.3 mm 3 mps 765 mmHg 73%
    16:00 +22°C° 0.2 mm 3 mps 765 mmHg 75%
    17:00 +21°C° 0.2 mm 3 mps 765 mmHg 76%
    18:00 +21°C° 0.2 mm 3 mps 765 mmHg 78%
    19:00 +19°C° 0 mm 3 mps 766 mmHg 84%
    20:00 +18°C° 0 mm 2 mps 766 mmHg 89%
    21:00 +16°C° 0 mm 2 mps 767 mmHg 95%
    22:00 +16°C° 0 mm 2 mps 767 mmHg 95%
    23:00 +16°C° 0 mm 2 mps 767 mmHg 95%

    16 December, Sunday

    Time Temperature Precipitation Wind Pressure Humidity
    00:00 +15°C° 0 mm 2 mps 768 mmHg 95%
    01:00 +15°C° 0 mm 2 mps 767 mmHg 94%
    02:00 +15°C° 0 mm 2 mps 767 mmHg 94%
    03:00 +15°C° 0 mm 2 mps 767 mmHg 93%
    04:00 +15°C° 0 mm 1 mps 767 mmHg 92%
    05:00 +16°C° 0 mm 1 mps 767 mmHg 90%
    06:00 +18°C° 0 mm 1 mps 768 mmHg 88%
    07:00 +20°C° 0 mm 1 mps 768 mmHg 81%
    08:00 +21°C° 0 mm 1 mps 768 mmHg 74%
    09:00 +23°C° 0 mm 2 mps 768 mmHg 67%
    10:00 +24°C° 0 mm 2 mps 768 mmHg 66%
    11:00 +24°C° 0 mm 2 mps 768 mmHg 64%
    12:00 +25°C° 0 mm 2 mps 768 mmHg 63%
    13:00 +25°C° 0 mm 2 mps 767 mmHg 62%
    14:00 +26°C° 0 mm 3 mps 767 mmHg 61%
    15:00 +26°C° 0 mm 3 mps 767 mmHg 59%
    16:00 +25°C° 0 mm 3 mps 767 mmHg 62%
    17:00 +25°C° 0 mm 3 mps 766 mmHg 64%
    18:00 +24°C° 0 mm 3 mps 766 mmHg 66%
    19:00 +21°C° 0 mm 2 mps 766 mmHg 72%
    20:00 +20°C° 0 mm 2 mps 767 mmHg 79%
    21:00 +19°C° 0 mm 1 mps 767 mmHg 85%
    22:00 +19°C° 0 mm 1 mps 767 mmHg 86%
    23:00 +19°C° 0 mm 1 mps 767 mmHg 88%

    17 December, Monday

    Time Temperature Precipitation Wind Pressure Humidity
    00:00 +18°C° 0 mm 2 mps 767 mmHg 89%
    01:00 +17°C° 0 mm 2 mps 766 mmHg 90%
    02:00 +17°C° 0 mm 2 mps 766 mmHg 90%
    03:00 +17°C° 0 mm 3 mps 766 mmHg 91%
    04:00 +17°C° 0 mm 3 mps 766 mmHg 89%
    05:00 +18°C° 0 mm 3 mps 765 mmHg 87%
    06:00 +18°C° 0 mm 4 mps 765 mmHg 84%
    07:00 +20°C° 0 mm 4 mps 765 mmHg 73%
    08:00 +23°C° 0 mm 4 mps 765 mmHg 61%
    09:00 +26°C° 0 mm 4 mps 765 mmHg 50%
    10:00 +27°C° 0 mm 4 mps 765 mmHg 45%
    11:00 +29°C° 0 mm 4 mps 764 mmHg 40%
    12:00 +30°C° 0 mm 5 mps 764 mmHg 36%
    13:00 +30°C° 0 mm 5 mps 764 mmHg 36%
    14:00 +30°C° 0 mm 5 mps 763 mmHg 37%
    15:00 +30°C° 0 mm 5 mps 763 mmHg 37%
    16:00 +29°C° 0 mm 5 mps 763 mmHg 41%
    17:00 +28°C° 0 mm 4 mps 762 mmHg 46%
    18:00 +27°C° 0 mm 4 mps 762 mmHg 50%
    19:00 +23°C° 0 mm 4 mps 762 mmHg 57%
    20:00 +21°C° 0 mm 4 mps 762 mmHg 64%
    21:00 +19°C° 0 mm 3 mps 763 mmHg 71%
    22:00 +18°C° 0 mm 4 mps 762 mmHg 71%
    23:00 +18°C° 0 mm 4 mps 762 mmHg 70%

    18 December, Tuesday

    Time Temperature Precipitation Wind Pressure Humidity
    00:00 +18°C° 0 mm 4 mps 762 mmHg 70%
    01:00 +17°C° 0 mm 4 mps 761 mmHg 69%
    02:00 +17°C° 0 mm 4 mps 761 mmHg 67%
    03:00 +17°C° 0 mm 4 mps 761 mmHg 65%
    04:00 +17°C° 0 mm 4 mps 760 mmHg 64%
    05:00 +17°C° 0 mm 4 mps 760 mmHg 63%
    06:00 +17°C° 0 mm 4 mps 760 mmHg 61%
    07:00 +20°C° 0 mm 5 mps 760 mmHg 54%
    08:00 +23°C° 0 mm 5 mps 760 mmHg 46%
    09:00 +27°C° 0 mm 5 mps 759 mmHg 38%
    10:00 +28°C° 0 mm 5 mps 759 mmHg 35%
    11:00 +29°C° 0 mm 6 mps 758 mmHg 33%
    12:00 +30°C° 0 mm 6 mps 758 mmHg 31%
    13:00 +30°C° 0 mm 7 mps 758 mmHg 32%
    14:00 +29°C° 0 mm 7 mps 757 mmHg 33%
    15:00 +29°C° 0 mm 8 mps 757 mmHg 34%
    16:00 +28°C° 0 mm 7 mps 756 mmHg 38%
    17:00 +26°C° 0 mm 6 mps 756 mmHg 42%
    18:00 +24°C° 0 mm 6 mps 756 mmHg 46%
    19:00 +22°C° 0 mm 6 mps 756 mmHg 52%
    20:00 +21°C° 0 mm 5 mps 757 mmHg 58%
    21:00 +19°C° 0 mm 5 mps 757 mmHg 64%
    22:00 +17°C° 0 mm 5 mps 756 mmHg 68%
    23:00 +17°C° 0 mm 5 mps 756 mmHg 71%
    Show more